Hlavní strana
METAR-TAF:

METAR-TAF

Letiště :

Dublin, Georgie, Spojené státy americké

zeměpisná šířka: 32-33-52N, zeměpisná délka: 082-59-07W, výška: 94 m

Aktuální stav počasí

Zpráva byla vytvořena před 20 minutami, v 08:35 UTC
Bezvětří
Teplota 21°C
Vlhkost vzduchu 100%
Tlak 1016 hPa
Viditelnost: 8.0 km
Zataženo ve výšce 400 ft
kouřmo

METAR: KDBN 280835Z AUTO 00000KT 5SM BR OVC004 21/21 A2999 RMK AO2

Čas: 04:55 (08:55 UTC)


TAF: chybějící

Stav a předpovědi počasí z více než 4 000 letišť (zprávy METAR a TAF).

Červené a žluté tečky na mapě představují dostupné meteorologické stanice.

Když kurzor umístíte na tečku, zobrazí se název stanice.

Pak kliknutím zobrazíte stav a předpověď počasí.

Chcete-li změnit mapu, kliknutím na zelené tlačítko se znaménkem +mapu přiblížíte, kliknutím na zelené tlačítko se znaménkem – mapu oddálíte a kliknutím na zelené šipky přejdete na sousední mapy.


METAR-TAF: